Regional Weather Roundup
Issued by NWS

Home | Current Version | Previous Version | Graphics & Text | Print | Product List | Glossary On
Versions: 1 2 3 4 5 6 7 8 9 10 11 12 13 14 15 16 17 18 19 20 21 22 23 24 25 26 27 28 29 30 31 32 33 34 35 36 37 38 39 40 41 42 43 44 45 46 47 48 49 50
000
ASUS45 KBOU 020307
RWRCO

WEATHER ROUNDUP FOR COLORADO
NATIONAL WEATHER SERVICE DENVER/BOULDER CO
900 PM MDT WED OCT 01 2014

NOTE: "FAIR" INDICATES FEW OR NO CLOUDS BELOW 12000 FEET WITH NO
SIGNIFICANT WEATHER AND/OR OBSTRUCTIONS TO VISIBILITY.

COZ001>005-013-030-031-020400-
...NORTHWEST COLORADO...

CITY           SKY/WX    TMP DP  RH WIND       PRES   REMARKS
CRAIG          MOCLDY    38  34  85 CALM      30.14R
HAYDEN         CLOUDY    37  34  87 CALM      30.13R
MEEKER         MOCLDY    40  36  86 N9        30.16R
MOUNT WERNER   NOT AVBL
STEAMBOAT SPGS CLOUDY    36  34  93 CALM      30.13R
WALDEN         CLOUDY    34  30  86 CALM      30.11R
$$

COZ006>008-011-020400-
...WEST CENTRAL VALLEYS...

CITY           SKY/WX    TMP DP  RH WIND       PRES   REMARKS
GRAND JUNCTION CLOUDY    46  39  76 E7        30.11R
MONTROSE       CLOUDY    44  42  93 CALM      30.12R
EAGLE          CLOUDY    39  37  93 E9        30.15R
RIFLE          CLOUDY    42  37  82 NE7       30.13R
DELTA          RAIN      50  47  88 CALM      30.12R
NUCLA          MOCLDY    45  39  81 CALM      30.15R
$$

COZ017>023-064>068-020400-
...SOUTHWEST COLORADO...

CITY           SKY/WX    TMP DP  RH WIND       PRES   REMARKS
DURANGO        CLEAR     46  36  68 NE3       30.06R
CORTEZ         MOCLDY    49  40  71 SW3       30.07R
PAGOSA SPRINGS CLEAR     47  31  53 W8        30.09S
TELLURIDE      MOCLDY   N/A N/A N/A CALM      30.18R
WOLF CREEK PAS MOCLDY    28  28 100 SW21G30   30.21R WCI  15
$$

COZ009-010-012-014-032>034-037-058>063-020400-
...CENTRAL COLORADO...

CITY           SKY/WX    TMP DP  RH WIND       PRES   REMARKS
ASPEN          LGT SNOW  33  32  96 NW3       30.15R FOG
BUENA VISTA    DRIZZLE   42  34  72 W12       30.07R
COPPER MTN     HVY SNOW  30  27  86 W23G39    30.18R VSB 1/4 WCI  17
BERTHOUD PASS  SNOW      21  19  93 N15G22    30.19R VSB 1/4 WCI   8
COTTONWOOD PAS LGT SNOW  37  32  81 NW15G31   30.09F
GUNNISON       MOCLDY    39  32  75 W5        30.14R
KREMMLING      RAIN      37  34  87 S6        30.14R
LEADVILLE      CLOUDY    32  29  88 VRB5      30.13R WCI  27
SALIDA         MOCLDY    47  28  47 W21G30    30.14R
SUNLIGHT       CLOUDY    30  28  93 NW3       30.22R
WILKERSON PASS NOT AVBL
$$

COZ069>075-020400-
...SAN LUIS VALLEY/SANGRE DE CRISTO MOUNTAINS...

CITY           SKY/WX    TMP DP  RH WIND       PRES   REMARKS
ALAMOSA        PTCLDY    42  37  82 E9        30.06R
LA VETA PASS   PTCLDY    37  28  70 S14G31    30.09R
SAGUACHE       MOCLDY    43  32  65 NW12      30.09R
$$

COZ035-036-038>040-020400-
...NORTHERN COLORADO FRONT RANGE...

CITY           SKY/WX    TMP DP  RH WIND       PRES   REMARKS
DENVER INTL AP CLOUDY    44  41  89 CALM      30.05R
DMNS CITY PARK   N/A     46  39  78 NE2       30.05R
AURORA         CLOUDY    43  43 100 N5        30.06R
FRONT RANGE AP NOT AVBL
ERIE MUNI ARPT CLOUDY    46  39  75 CALM      30.05R
BOULDER MUN AP CLOUDY    45  37  76 N3        30.05R
CENTENNIAL     RAIN      43  40  89 SW7       30.05R FOG
BROOMFIELD     MOCLDY    46  37  71 NW7       30.05R
FORT COLLINS   MOCLDY    45  39  81 W3        30.06R
LONGMONT       CLOUDY    49  38  67 N7        30.07R
$$

COZ041-046-047-076>085-087-088-020400-
...PIKES PEAK/PALMER DIVIDE AND SOUTHERN FOOTHILLS...

CITY           SKY/WX    TMP DP  RH WIND       PRES   REMARKS
COLO. SPRINGS  CLOUDY    46  40  79 N24G32    30.02R
A. F. ACADEMY  CLOUDY    43  39  87 NW16      30.04R
ELLICOTT       NOT AVBL
FALCON         CLOUDY    41  41  98 N18G26    30.04R
FORT CARSON    CLOUDY    47  42  82 N24G31    29.99R
LIMON          LGT RAIN  43  42  97 N16       30.02R
MONUMENT HILL  CLOUDY    37  37 100 N12       30.05R
TRINIDAD       PTCLDY    54  34  46 W10       29.93R
$$

COZ042>045-048>051-090-091-020400-
...NORTHEAST COLORADO...

CITY           SKY/WX    TMP DP  RH WIND       PRES   REMARKS
GREELEY ARPT   MOCLDY    45  36  70 N9        30.04R
AKRON          CLOUDY    45  44  97 N16       29.99R
BURLINGTON     CLOUDY    50  46  86 N16G23    29.93R
WRAY           DRIZZLE   51  50  97 N26G32    29.93F
STERLING       CLOUDY    48  46  93 NE9       29.97R
HOLYOKE        CLOUDY    54  50  87 N22       29.98R
FORT MORGAN    MOCLDY    44  41  91 N10       30.00R
$$

COZ086-089-092>099-020400-
...SOUTHEAST COLORADO...

CITY           SKY/WX    TMP DP  RH WIND       PRES   REMARKS
PUEBLO         CLOUDY    53  41  63 N31G39    29.92R
LA JUNTA       MOCLDY    55  45  68 N26G33    29.88R
LAMAR          LGT RAIN  57  46  66 N29G38    29.83R
SPRINGFIELD      N/A     61  36  39 NW9       29.81R
$$



USA.gov is the U.S. government's official web portal to all federal, state and local government web resources and services.